Time,TemperatureF,DewpointF,PressureIn,WindDirection,WindDirectionDegrees,WindSpeedMPH,WindSpeedGustMPH,Humidity,HourlyPrecipIn,Conditions,Clouds,dailyrainin,SoftwareType,DateUTC
2013-05-14 00:00:00,58.2,41.2,29.53,SSE,158,0.0,0.0,53,0.00,,---,0.00,VWS V14.00,2013-05-14 05:00:00,
2013-05-14 00:05:00,58.2,41.2,29.53,South,180,0.0,0.0,53,0.00,,---,0.00,VWS V14.00,2013-05-14 05:05:00,
2013-05-14 00:10:00,58.1,41.1,29.53,SSE,158,0.0,0.0,53,0.00,,---,0.00,VWS V14.00,2013-05-14 05:10:00,
2013-05-14 00:15:00,57.9,40.9,29.53,SSE,158,0.0,0.0,53,0.00,,---,0.00,VWS V14.00,2013-05-14 05:15:00,
2013-05-14 00:20:00,57.9,40.9,29.52,SSE,158,0.0,0.0,53,0.00,,---,0.00,VWS V14.00,2013-05-14 05:20:00,
2013-05-14 00:25:00,57.7,41.2,29.52,SSE,158,0.0,0.0,54,0.00,,---,0.00,VWS V14.00,2013-05-14 05:25:00,
2013-05-14 00:30:00,57.7,41.2,29.52,SE,135,0.0,0.0,54,0.00,,---,0.00,VWS V14.00,2013-05-14 05:30:00,
2013-05-14 00:35:00,57.3,41.3,29.52,SSE,158,0.0,0.0,55,0.00,,---,0.00,VWS V14.00,2013-05-14 05:35:00,
2013-05-14 00:40:00,57.3,41.3,29.51,South,180,0.0,0.0,55,0.00,,---,0.00,VWS V14.00,2013-05-14 05:40:00,
2013-05-14 00:45:00,57.3,41.3,29.51,SSE,158,0.0,0.0,55,0.00,,---,0.00,VWS V14.00,2013-05-14 05:45:00,
2013-05-14 00:50:00,57.5,41.5,29.51,SSE,158,0.0,0.0,55,0.00,,---,0.00,VWS V14.00,2013-05-14 05:50:00,
2013-05-14 00:55:00,57.5,41.5,29.51,SSE,158,0.0,0.0,55,0.00,,---,0.00,VWS V14.00,2013-05-14 05:55:00,
2013-05-14 01:00:00,57.5,41.5,29.50,SSE,158,0.0,0.0,55,0.00,,---,0.00,VWS V14.00,2013-05-14 06:00:00,
2013-05-14 01:05:00,57.5,41.5,29.50,South,180,0.0,0.0,55,0.00,,---,0.00,VWS V14.00,2013-05-14 06:05:00,
2013-05-14 01:10:00,57.3,41.3,29.50,South,180,0.0,0.0,55,0.00,,---,0.00,VWS V14.00,2013-05-14 06:10:00,
2013-05-14 01:15:00,57.3,41.8,29.50,South,180,0.0,0.0,56,0.00,,---,0.00,VWS V14.00,2013-05-14 06:15:00,
2013-05-14 01:20:00,57.3,41.8,29.50,SSE,158,0.0,0.0,56,0.00,,---,0.00,VWS V14.00,2013-05-14 06:20:00,
2013-05-14 01:25:00,57.3,41.8,29.49,South,180,0.0,0.0,56,0.00,,---,0.00,VWS V14.00,2013-05-14 06:25:00,
2013-05-14 01:30:00,57.3,41.8,29.49,South,180,0.0,0.0,56,0.00,,---,0.00,VWS V14.00,2013-05-14 06:30:00,
2013-05-14 01:36:00,57.2,42.1,29.49,South,180,0.0,0.0,57,0.00,,---,0.00,VWS V14.00,2013-05-14 06:36:00,
2013-05-14 01:41:00,57.0,41.9,29.48,South,180,0.0,0.0,57,0.00,,---,0.00,VWS V14.00,2013-05-14 06:41:00,
2013-05-14 01:46:00,57.0,41.9,29.48,South,180,0.0,0.0,57,0.00,,---,0.00,VWS V14.00,2013-05-14 06:46:00,
2013-05-14 01:51:00,57.0,42.4,29.48,SSE,158,0.0,0.0,58,0.00,,---,0.00,VWS V14.00,2013-05-14 06:51:00,
2013-05-14 01:56:00,56.8,42.2,29.48,South,180,0.0,0.0,58,0.00,,---,0.00,VWS V14.00,2013-05-14 06:56:00,
2013-05-14 02:01:00,56.8,42.2,29.48,South,180,0.0,0.0,58,0.00,,---,0.00,VWS V14.00,2013-05-14 07:01:00,
2013-05-14 02:06:00,56.6,42.0,29.47,South,180,0.0,0.0,58,0.00,,---,0.00,VWS V14.00,2013-05-14 07:06:00,
2013-05-14 02:11:00,56.4,42.3,29.47,SSE,158,0.0,0.0,59,0.00,,---,0.00,VWS V14.00,2013-05-14 07:11:00,
2013-05-14 02:16:00,56.4,42.3,29.47,SSE,158,0.0,0.0,59,0.00,,---,0.00,VWS V14.00,2013-05-14 07:16:00,
2013-05-14 02:21:00,56.4,42.3,29.47,South,180,0.0,0.0,59,0.00,,---,0.00,VWS V14.00,2013-05-14 07:21:00,
2013-05-14 02:26:00,56.3,42.6,29.47,SSE,158,0.0,0.0,60,0.00,,---,0.00,VWS V14.00,2013-05-14 07:26:00,
2013-05-14 02:31:00,56.1,42.4,29.47,SSW,202,0.0,0.0,60,0.00,,---,0.00,VWS V14.00,2013-05-14 07:31:00,
2013-05-14 02:36:00,56.1,42.4,29.46,SSE,158,0.0,0.0,60,0.00,,---,0.00,VWS V14.00,2013-05-14 07:36:00,
2013-05-14 02:41:00,55.9,42.7,29.46,South,180,0.0,0.0,61,0.00,,---,0.00,VWS V14.00,2013-05-14 07:41:00,
2013-05-14 02:46:00,55.9,42.7,29.46,SSE,158,0.0,0.0,61,0.00,,---,0.00,VWS V14.00,2013-05-14 07:46:00,
2013-05-14 02:51:00,55.9,42.7,29.46,South,180,0.0,0.0,61,0.00,,---,0.00,VWS V14.00,2013-05-14 07:51:00,
2013-05-14 02:56:00,55.9,42.7,29.45,South,180,0.0,0.0,61,0.00,,---,0.00,VWS V14.00,2013-05-14 07:56:00,
2013-05-14 03:01:00,55.9,42.7,29.46,South,180,0.0,0.0,61,0.00,,---,0.00,VWS V14.00,2013-05-14 08:01:00,
2013-05-14 03:06:00,55.9,43.1,29.46,South,180,0.0,0.0,62,0.00,,---,0.00,VWS V14.00,2013-05-14 08:06:00,
2013-05-14 03:11:00,55.7,42.9,29.45,South,180,0.0,0.0,62,0.00,,---,0.00,VWS V14.00,2013-05-14 08:11:00,
2013-05-14 03:16:00,55.7,42.9,29.45,South,180,0.0,0.0,62,0.00,,---,0.00,VWS V14.00,2013-05-14 08:16:00,
2013-05-14 03:21:00,55.7,42.9,29.45,SSE,158,0.0,0.0,62,0.00,,---,0.00,VWS V14.00,2013-05-14 08:21:00,
2013-05-14 03:26:00,55.7,43.3,29.45,South,180,0.0,0.0,63,0.00,,---,0.00,VWS V14.00,2013-05-14 08:26:00,
2013-05-14 03:31:00,55.5,43.1,29.45,South,180,0.0,0.0,63,0.00,,---,0.00,VWS V14.00,2013-05-14 08:31:00,
2013-05-14 03:36:00,55.5,43.1,29.45,SSE,158,0.0,0.0,63,0.00,,---,0.00,VWS V14.00,2013-05-14 08:36:00,
2013-05-14 03:41:00,55.5,43.1,29.45,SSE,158,0.0,0.0,63,0.00,,---,0.00,VWS V14.00,2013-05-14 08:41:00,
2013-05-14 03:46:00,55.5,43.1,29.45,South,180,0.0,0.0,63,0.00,,---,0.00,VWS V14.00,2013-05-14 08:46:00,
2013-05-14 03:51:00,55.5,43.5,29.45,South,180,0.0,0.0,64,0.00,,---,0.00,VWS V14.00,2013-05-14 08:51:00,
2013-05-14 03:56:00,55.5,43.5,29.45,South,180,0.0,0.0,64,0.00,,---,0.00,VWS V14.00,2013-05-14 08:56:00,
2013-05-14 04:01:00,55.5,43.5,29.45,South,180,0.0,0.0,64,0.00,,---,0.00,VWS V14.00,2013-05-14 09:01:00,
2013-05-14 04:06:00,55.5,43.5,29.45,South,180,0.0,0.0,64,0.00,,---,0.00,VWS V14.00,2013-05-14 09:06:00,
2013-05-14 04:11:00,55.5,43.5,29.45,SSW,202,0.0,0.0,64,0.00,,---,0.00,VWS V14.00,2013-05-14 09:11:00,
2013-05-14 04:16:00,55.5,43.9,29.45,South,180,0.0,0.0,65,0.00,,---,0.00,VWS V14.00,2013-05-14 09:16:00,
2013-05-14 04:21:00,55.4,43.8,29.44,South,180,0.0,0.0,65,0.00,,---,0.00,VWS V14.00,2013-05-14 09:21:00,
2013-05-14 04:26:00,55.4,43.8,29.44,SSE,158,0.0,0.0,65,0.00,,---,0.00,VWS V14.00,2013-05-14 09:26:00,
2013-05-14 04:31:00,55.4,43.8,29.43,South,180,0.0,0.0,65,0.00,,---,0.00,VWS V14.00,2013-05-14 09:31:00,
2013-05-14 04:36:00,55.4,43.8,29.43,South,180,0.0,0.0,65,0.00,,---,0.00,VWS V14.00,2013-05-14 09:36:00,
2013-05-14 04:42:00,55.2,43.7,29.43,SSW,202,0.0,0.0,65,0.00,,---,0.00,VWS V14.00,2013-05-14 09:42:00,
2013-05-14 04:47:00,55.2,44.0,29.43,SSE,158,0.0,0.0,66,0.00,,---,0.00,VWS V14.00,2013-05-14 09:47:00,
2013-05-14 04:52:00,55.2,44.0,29.43,South,180,0.0,0.0,66,0.00,,---,0.00,VWS V14.00,2013-05-14 09:52:00,
2013-05-14 04:57:00,55.2,44.0,29.43,South,180,0.0,0.0,66,0.00,,---,0.00,VWS V14.00,2013-05-14 09:57:00,
2013-05-14 05:02:00,55.2,43.7,29.43,South,180,0.0,0.0,65,0.00,,---,0.00,VWS V14.00,2013-05-14 10:02:00,
2013-05-14 05:07:00,55.2,44.0,29.43,SSE,158,0.0,0.0,66,0.00,,---,0.00,VWS V14.00,2013-05-14 10:07:00,
2013-05-14 05:12:00,55.2,44.0,29.42,South,180,0.0,0.0,66,0.00,,---,0.00,VWS V14.00,2013-05-14 10:12:00,
2013-05-14 05:18:00,55.0,43.9,29.42,SSW,202,0.0,0.0,66,0.00,,---,0.00,VWS V14.00,2013-05-14 10:18:00,
2013-05-14 05:23:00,55.0,44.3,29.42,SSE,158,0.0,0.0,67,0.00,,---,0.00,VWS V14.00,2013-05-14 10:23:00,
2013-05-14 05:28:00,55.0,44.3,29.42,South,180,0.0,0.0,67,0.00,,---,0.00,VWS V14.00,2013-05-14 10:28:00,
2013-05-14 05:33:00,55.0,44.3,29.42,SSE,158,0.0,0.0,67,0.00,,---,0.00,VWS V14.00,2013-05-14 10:33:00,
2013-05-14 05:38:00,55.0,44.3,29.42,South,180,0.0,0.0,67,0.00,,---,0.00,VWS V14.00,2013-05-14 10:38:00,
2013-05-14 05:43:00,55.0,44.3,29.42,South,180,0.0,0.0,67,0.00,,---,0.00,VWS V14.00,2013-05-14 10:43:00,
2013-05-14 05:48:00,55.0,44.7,29.42,South,180,0.0,0.0,68,0.00,,---,0.00,VWS V14.00,2013-05-14 10:48:00,
2013-05-14 05:53:00,55.0,44.7,29.42,South,180,0.0,0.0,68,0.00,,---,0.00,VWS V14.00,2013-05-14 10:53:00,
2013-05-14 05:58:00,55.2,44.8,29.41,South,180,0.0,0.0,68,0.00,,---,0.00,VWS V14.00,2013-05-14 10:58:00,
2013-05-14 06:03:00,55.2,44.8,29.42,South,180,0.0,0.0,68,0.00,,---,0.00,VWS V14.00,2013-05-14 11:03:00,
2013-05-14 06:08:00,55.4,45.4,29.41,South,180,0.0,0.0,69,0.00,,---,0.00,VWS V14.00,2013-05-14 11:08:00,
2013-05-14 06:13:00,55.7,45.7,29.41,SSW,202,0.0,0.0,69,0.00,,---,0.00,VWS V14.00,2013-05-14 11:13:00,
2013-05-14 06:18:00,56.1,45.7,29.41,SSE,158,0.0,0.0,68,0.00,,---,0.00,VWS V14.00,2013-05-14 11:18:00,
2013-05-14 06:23:00,56.3,45.9,29.41,SSW,202,0.0,0.0,68,0.00,,---,0.00,VWS V14.00,2013-05-14 11:23:00,
2013-05-14 06:28:00,56.4,46.0,29.40,SSE,158,0.0,0.0,68,0.00,,---,0.00,VWS V14.00,2013-05-14 11:28:00,
2013-05-14 06:33:00,56.8,46.4,29.40,South,180,0.0,0.0,68,0.00,,---,0.00,VWS V14.00,2013-05-14 11:33:00,
2013-05-14 06:38:00,57.0,46.6,29.40,SSE,158,0.0,0.0,68,0.00,,---,0.00,VWS V14.00,2013-05-14 11:38:00,
2013-05-14 06:43:00,57.3,46.8,29.41,South,180,0.0,0.0,68,0.00,,---,0.00,VWS V14.00,2013-05-14 11:43:00,
2013-05-14 06:48:00,57.3,46.8,29.41,SSE,158,0.0,0.0,68,0.00,,---,0.00,VWS V14.00,2013-05-14 11:48:00,
2013-05-14 06:53:00,57.7,47.2,29.40,South,180,0.0,0.0,68,0.00,,---,0.00,VWS V14.00,2013-05-14 11:53:00,
2013-05-14 06:58:00,57.9,47.4,29.41,SSW,202,0.0,0.0,68,0.00,,---,0.00,VWS V14.00,2013-05-14 11:58:00,
2013-05-14 07:03:00,58.2,47.7,29.41,SSE,158,0.0,0.0,68,0.00,,---,0.00,VWS V14.00,2013-05-14 12:03:00,
2013-05-14 07:08:00,58.6,48.1,29.40,SSE,158,0.0,0.0,68,0.00,,---,0.00,VWS V14.00,2013-05-14 12:08:00,
2013-05-14 07:13:00,58.8,48.3,29.40,South,180,0.0,0.0,68,0.00,,---,0.00,VWS V14.00,2013-05-14 12:13:00,
2013-05-14 07:18:00,58.8,48.3,29.39,South,180,0.0,0.0,68,0.00,,---,0.00,VWS V14.00,2013-05-14 12:18:00,
2013-05-14 07:23:00,59.5,48.5,29.40,South,180,0.0,0.0,67,0.00,,---,0.00,VWS V14.00,2013-05-14 12:23:00,
2013-05-14 07:28:00,59.9,48.9,29.40,SSW,202,0.0,0.0,67,0.00,,---,0.00,VWS V14.00,2013-05-14 12:28:00,
2013-05-14 07:33:00,60.4,49.4,29.39,SSW,202,0.0,0.0,67,0.00,,---,0.00,VWS V14.00,2013-05-14 12:33:00,
2013-05-14 07:38:00,60.6,49.6,29.39,South,180,0.0,0.0,67,0.00,,---,0.00,VWS V14.00,2013-05-14 12:38:00,
2013-05-14 07:43:00,61.1,50.1,29.39,South,180,0.0,0.0,67,0.00,,---,0.00,VWS V14.00,2013-05-14 12:43:00,
2013-05-14 07:48:00,61.5,50.5,29.39,SSE,158,0.0,0.0,67,0.00,,---,0.00,VWS V14.00,2013-05-14 12:48:00,
2013-05-14 07:53:00,62.0,50.5,29.39,SSW,202,0.0,0.0,66,0.00,,---,0.00,VWS V14.00,2013-05-14 12:53:00,
2013-05-14 07:58:00,62.4,50.9,29.39,South,180,0.0,0.0,66,0.00,,---,0.00,VWS V14.00,2013-05-14 12:58:00,
2013-05-14 08:03:00,63.1,51.6,29.39,SSW,202,0.0,0.0,66,0.00,,---,0.00,VWS V14.00,2013-05-14 13:03:00,
2013-05-14 08:08:00,63.6,51.6,29.39,South,180,0.0,0.0,65,0.00,,---,0.00,VWS V14.00,2013-05-14 13:08:00,
2013-05-14 08:14:00,64.2,0.0,29.39,SSW,202,0.0,0.0,0,0.00,,---,0.00,VWS V14.00,2013-05-14 13:14:00,
2013-05-14 08:19:00,64.7,52.3,29.39,SW,225,0.0,0.0,64,0.00,,---,0.00,VWS V14.00,2013-05-14 13:19:00,
2013-05-14 08:24:00,65.1,52.6,29.39,SSW,202,0.0,0.0,64,0.00,,---,0.00,VWS V14.00,2013-05-14 13:24:00,
2013-05-14 08:29:00,65.8,52.9,29.38,SW,225,0.0,0.0,63,0.00,,---,0.00,VWS V14.00,2013-05-14 13:29:00,
2013-05-14 08:34:00,66.3,53.3,29.38,South,180,0.0,0.0,63,0.00,,---,0.00,VWS V14.00,2013-05-14 13:34:00,
2013-05-14 08:39:00,66.7,53.3,29.38,SSW,202,0.0,0.0,62,0.00,,---,0.00,VWS V14.00,2013-05-14 13:39:00,
2013-05-14 08:44:00,67.1,53.7,29.38,SSW,202,0.0,0.0,62,0.00,,---,0.00,VWS V14.00,2013-05-14 13:44:00,
2013-05-14 08:49:00,67.6,54.1,29.37,SSW,202,0.0,0.0,62,0.00,,---,0.00,VWS V14.00,2013-05-14 13:49:00,
2013-05-14 08:54:00,67.8,53.9,29.38,South,180,0.0,0.0,61,0.00,,---,0.00,VWS V14.00,2013-05-14 13:54:00,
2013-05-14 08:59:00,68.3,54.3,29.38,SSW,202,0.0,0.0,61,0.00,,---,0.00,VWS V14.00,2013-05-14 13:59:00,
2013-05-14 09:04:00,68.9,54.9,29.37,SW,225,0.0,0.0,61,0.00,,---,0.00,VWS V14.00,2013-05-14 14:04:00,
2013-05-14 09:09:00,69.4,54.9,29.37,SW,225,0.0,0.0,60,0.00,,---,0.00,VWS V14.00,2013-05-14 14:09:00,
2013-05-14 09:14:00,69.9,55.4,29.37,SSW,202,0.0,0.0,60,0.00,,---,0.00,VWS V14.00,2013-05-14 14:14:00,
2013-05-14 09:19:00,70.3,55.3,29.37,SSW,202,0.0,0.0,59,0.00,,---,0.00,VWS V14.00,2013-05-14 14:19:00,
2013-05-14 09:24:00,70.8,56.2,29.37,SSW,202,0.0,0.0,60,0.00,,---,0.00,VWS V14.00,2013-05-14 14:24:00,
2013-05-14 09:29:00,71.4,56.3,29.36,SW,225,0.0,0.0,59,0.00,,---,0.00,VWS V14.00,2013-05-14 14:29:00,
2013-05-14 09:34:00,71.9,56.3,29.37,SW,225,0.0,0.0,58,0.00,,---,0.00,VWS V14.00,2013-05-14 14:34:00,
2013-05-14 09:39:00,72.5,56.9,29.36,SW,225,0.0,0.0,58,0.00,,---,0.00,VWS V14.00,2013-05-14 14:39:00,
2013-05-14 09:44:00,73.0,56.9,29.37,SW,225,0.0,0.0,57,0.00,,---,0.00,VWS V14.00,2013-05-14 14:44:00,
2013-05-14 09:49:00,73.5,57.3,29.37,SW,225,0.0,0.0,57,0.00,,---,0.00,VWS V14.00,2013-05-14 14:49:00,
2013-05-14 09:54:00,74.1,57.4,29.37,SW,225,0.0,0.0,56,0.00,,---,0.00,VWS V14.00,2013-05-14 14:54:00,
2013-05-14 09:59:00,74.8,58.1,29.37,SW,225,0.0,0.0,56,0.00,,---,0.00,VWS V14.00,2013-05-14 14:59:00,
2013-05-14 10:04:00,75.5,58.2,29.36,SW,225,0.0,0.0,55,0.00,,---,0.00,VWS V14.00,2013-05-14 15:04:00,
2013-05-14 10:09:00,75.9,58.6,29.36,SW,225,0.0,0.0,55,0.00,,---,0.00,VWS V14.00,2013-05-14 15:09:00,
2013-05-14 10:14:00,76.4,59.1,29.35,SW,225,0.0,0.0,55,0.00,,---,0.00,VWS V14.00,2013-05-14 15:14:00,
2013-05-14 10:19:00,76.8,58.9,29.35,WSW,248,0.0,0.0,54,0.00,,---,0.00,VWS V14.00,2013-05-14 15:19:00,
2013-05-14 10:24:00,77.1,58.7,29.35,SW,225,0.0,0.0,53,0.00,,---,0.00,VWS V14.00,2013-05-14 15:24:00,
2013-05-14 10:29:00,77.7,59.2,29.35,SSW,202,0.0,0.0,53,0.00,,---,0.00,VWS V14.00,2013-05-14 15:29:00,
2013-05-14 10:34:00,78.0,59.5,29.35,SW,225,0.0,0.0,53,0.00,,---,0.00,VWS V14.00,2013-05-14 15:34:00,
2013-05-14 10:39:00,78.6,60.1,29.35,SW,225,0.0,0.0,53,0.00,,---,0.00,VWS V14.00,2013-05-14 15:39:00,
2013-05-14 10:44:00,79.1,60.0,29.35,SW,225,0.0,0.0,52,0.00,,---,0.00,VWS V14.00,2013-05-14 15:44:00,
2013-05-14 10:49:00,79.5,59.8,29.35,WSW,248,0.0,0.0,51,0.00,,---,0.00,VWS V14.00,2013-05-14 15:49:00,
2013-05-14 10:54:00,79.8,60.6,29.35,WSW,248,0.0,0.0,52,0.00,,---,0.00,VWS V14.00,2013-05-14 15:54:00,
2013-05-14 10:59:00,80.4,60.6,29.35,SW,225,0.0,0.0,51,0.00,,---,0.00,VWS V14.00,2013-05-14 15:59:00,
2013-05-14 11:04:00,80.9,60.5,29.35,SW,225,0.0,0.0,50,0.00,,---,0.00,VWS V14.00,2013-05-14 16:04:00,
2013-05-14 11:09:00,81.1,60.7,29.35,SW,225,0.0,0.0,50,0.00,,---,0.00,VWS V14.00,2013-05-14 16:09:00,
2013-05-14 11:14:00,81.3,60.9,29.35,South,180,0.0,0.0,50,0.00,,---,0.00,VWS V14.00,2013-05-14 16:14:00,
2013-05-14 11:19:00,81.6,61.2,29.35,SW,225,0.0,0.0,50,0.00,,---,0.00,VWS V14.00,2013-05-14 16:19:00,
2013-05-14 11:24:00,82.2,61.2,29.35,SW,225,0.0,0.0,49,0.00,,---,0.00,VWS V14.00,2013-05-14 16:24:00,
2013-05-14 11:29:00,82.5,61.4,29.34,SW,225,0.0,0.0,49,0.00,,---,0.00,VWS V14.00,2013-05-14 16:29:00,
2013-05-14 11:34:00,82.9,61.2,29.34,WSW,248,0.0,0.0,48,0.00,,---,0.00,VWS V14.00,2013-05-14 16:34:00,
2013-05-14 11:39:00,83.3,61.6,29.34,SW,225,0.0,0.0,48,0.00,,---,0.00,VWS V14.00,2013-05-14 16:39:00,
2013-05-14 11:44:00,83.8,62.0,29.34,SW,225,0.0,0.0,48,0.00,,---,0.00,VWS V14.00,2013-05-14 16:44:00,
2013-05-14 11:49:00,84.3,62.5,29.34,SW,225,0.0,0.0,48,0.00,,---,0.00,VWS V14.00,2013-05-14 16:49:00,
2013-05-14 11:54:00,84.7,62.3,29.34,SW,225,0.0,0.0,47,0.00,,---,0.00,VWS V14.00,2013-05-14 16:54:00,
2013-05-14 11:59:00,84.9,62.4,29.34,SW,225,0.0,0.0,47,0.00,,---,0.00,VWS V14.00,2013-05-14 16:59:00,
2013-05-14 12:04:00,85.2,62.7,29.34,WSW,248,0.0,0.0,47,0.00,,---,0.00,VWS V14.00,2013-05-14 17:04:00,
2013-05-14 12:09:00,85.6,62.5,29.34,SW,225,0.0,0.0,46,0.00,,---,0.00,VWS V14.00,2013-05-14 17:09:00,
2013-05-14 12:14:00,85.8,62.7,29.34,WSW,248,0.0,0.0,46,0.00,,---,0.00,VWS V14.00,2013-05-14 17:14:00,
2013-05-14 12:19:00,86.1,62.9,29.34,SW,225,0.0,0.0,46,0.00,,---,0.00,VWS V14.00,2013-05-14 17:19:00,
2013-05-14 12:24:00,86.3,63.1,29.34,WSW,248,0.0,0.0,46,0.00,,---,0.00,VWS V14.00,2013-05-14 17:24:00,
2013-05-14 12:29:00,86.5,63.3,29.34,SW,225,0.0,0.0,46,0.00,,---,0.00,VWS V14.00,2013-05-14 17:29:00,
2013-05-14 12:34:00,86.7,63.5,29.33,SW,225,0.0,0.0,46,0.00,,---,0.00,VWS V14.00,2013-05-14 17:34:00,
2013-05-14 12:39:00,86.7,63.5,29.33,SW,225,0.0,0.0,46,0.00,,---,0.00,VWS V14.00,2013-05-14 17:39:00,
2013-05-14 12:44:00,87.0,63.7,29.33,WSW,248,0.0,0.0,46,0.00,,---,0.00,VWS V14.00,2013-05-14 17:44:00,
2013-05-14 12:49:00,87.0,63.1,29.33,SW,225,0.0,0.0,45,0.00,,---,0.00,VWS V14.00,2013-05-14 17:49:00,
2013-05-14 12:54:00,87.0,63.7,29.33,WSW,248,0.0,0.0,46,0.00,,---,0.00,VWS V14.00,2013-05-14 17:54:00,
2013-05-14 12:59:00,87.0,63.7,29.33,SW,225,0.0,0.0,46,0.00,,---,0.00,VWS V14.00,2013-05-14 17:59:00,
2013-05-14 13:04:00,86.9,63.0,29.33,WSW,248,0.0,0.0,45,0.00,,---,0.00,VWS V14.00,2013-05-14 18:04:00,
2013-05-14 13:09:00,86.7,63.5,29.32,WSW,248,0.0,0.0,46,0.00,,---,0.00,VWS V14.00,2013-05-14 18:09:00,
2013-05-14 13:14:00,87.0,63.7,29.33,WSW,248,0.0,0.0,46,0.00,,---,0.00,VWS V14.00,2013-05-14 18:14:00,
2013-05-14 13:19:00,87.0,63.7,29.33,WSW,248,0.0,0.0,46,0.00,,---,0.00,VWS V14.00,2013-05-14 18:19:00,
2013-05-14 13:24:00,87.0,63.7,29.32,WSW,248,0.0,0.0,46,0.00,,---,0.00,VWS V14.00,2013-05-14 18:24:00,
2013-05-14 13:29:00,87.2,63.9,29.32,WSW,248,0.0,0.0,46,0.00,,---,0.00,VWS V14.00,2013-05-14 18:29:00,
2013-05-14 13:34:00,87.2,63.9,29.32,WSW,248,0.0,0.0,46,0.00,,---,0.00,VWS V14.00,2013-05-14 18:34:00,
2013-05-14 13:39:00,87.2,63.9,29.32,WSW,248,0.0,0.0,46,0.00,,---,0.00,VWS V14.00,2013-05-14 18:39:00,
2013-05-14 13:44:00,87.2,64.5,29.32,WSW,248,0.0,0.0,47,0.00,,---,0.00,VWS V14.00,2013-05-14 18:44:00,
2013-05-14 13:49:00,87.4,64.7,29.32,WSW,248,0.0,0.0,47,0.00,,---,0.00,VWS V14.00,2013-05-14 18:49:00,
2013-05-14 13:54:00,87.6,64.3,29.32,WSW,248,0.0,0.0,46,0.00,,---,0.00,VWS V14.00,2013-05-14 18:54:00,
2013-05-14 13:59:00,87.6,63.7,29.31,WSW,248,0.0,0.0,45,0.00,,---,0.00,VWS V14.00,2013-05-14 18:59:00,
2013-05-14 14:04:00,87.6,64.3,29.31,WSW,248,0.0,0.0,46,0.00,,---,0.00,VWS V14.00,2013-05-14 19:04:00,
2013-05-14 14:09:00,87.4,64.1,29.31,WSW,248,0.0,0.0,46,0.00,,---,0.00,VWS V14.00,2013-05-14 19:09:00,
2013-05-14 14:14:00,87.4,64.1,29.31,WSW,248,0.0,0.0,46,0.00,,---,0.00,VWS V14.00,2013-05-14 19:14:00,
2013-05-14 14:19:00,87.4,64.1,29.31,WSW,248,0.0,0.0,46,0.00,,---,0.00,VWS V14.00,2013-05-14 19:19:00,
2013-05-14 14:24:00,87.4,64.1,29.31,WSW,248,0.0,0.0,46,0.00,,---,0.00,VWS V14.00,2013-05-14 19:24:00,
2013-05-14 14:29:00,87.6,64.9,29.30,WSW,248,0.0,0.0,47,0.00,,---,0.00,VWS V14.00,2013-05-14 19:29:00,
2013-05-14 14:34:00,87.6,64.9,29.30,WSW,248,0.0,0.0,47,0.00,,---,0.00,VWS V14.00,2013-05-14 19:34:00,
2013-05-14 14:39:00,87.6,64.9,29.30,WSW,248,0.0,0.0,47,0.00,,---,0.00,VWS V14.00,2013-05-14 19:39:00,
2013-05-14 14:44:00,87.6,64.3,29.30,WSW,248,0.0,0.0,46,0.00,,---,0.00,VWS V14.00,2013-05-14 19:44:00,
2013-05-14 14:49:00,87.6,64.3,29.30,WSW,248,0.0,0.0,46,0.00,,---,0.00,VWS V14.00,2013-05-14 19:49:00,
2013-05-14 14:54:00,87.6,64.3,29.30,WSW,248,0.0,0.0,46,0.00,,---,0.00,VWS V14.00,2013-05-14 19:54:00,
2013-05-14 14:59:00,87.6,64.3,29.30,WSW,248,0.0,0.0,46,0.00,,---,0.00,VWS V14.00,2013-05-14 19:59:00,
2013-05-14 15:04:00,87.6,64.3,29.30,WSW,248,0.0,0.0,46,0.00,,---,0.00,VWS V14.00,2013-05-14 20:04:00,
2013-05-14 15:09:00,87.6,64.3,29.30,WSW,248,0.0,0.0,46,0.00,,---,0.00,VWS V14.00,2013-05-14 20:09:00,
2013-05-14 15:14:00,87.8,64.5,29.30,WSW,248,0.0,0.0,46,0.00,,---,0.00,VWS V14.00,2013-05-14 20:14:00,
2013-05-14 15:19:00,87.8,63.8,29.30,WSW,248,0.0,0.0,45,0.00,,---,0.00,VWS V14.00,2013-05-14 20:19:00,
2013-05-14 15:24:00,87.8,63.8,29.30,WSW,248,0.0,0.0,45,0.00,,---,0.00,VWS V14.00,2013-05-14 20:24:00,
2013-05-14 15:29:00,87.9,63.9,29.30,WSW,248,0.0,0.0,45,0.00,,---,0.00,VWS V14.00,2013-05-14 20:29:00,
2013-05-14 15:34:00,87.6,63.7,29.29,WSW,248,0.0,0.0,45,0.00,,---,0.00,VWS V14.00,2013-05-14 20:34:00,
2013-05-14 15:39:00,87.6,63.7,29.29,WSW,248,0.0,0.0,45,0.00,,---,0.00,VWS V14.00,2013-05-14 20:39:00,
2013-05-14 15:44:00,87.6,63.7,29.29,WSW,248,0.0,0.0,45,0.00,,---,0.00,VWS V14.00,2013-05-14 20:44:00,
2013-05-14 15:49:00,87.6,63.7,29.28,WSW,248,0.0,0.0,45,0.00,,---,0.00,VWS V14.00,2013-05-14 20:49:00,
2013-05-14 15:54:00,87.6,63.7,29.29,WSW,248,0.0,0.0,45,0.00,,---,0.00,VWS V14.00,2013-05-14 20:54:00,
2013-05-14 15:59:00,87.6,63.7,29.28,WSW,248,0.0,0.0,45,0.00,,---,0.00,VWS V14.00,2013-05-14 20:59:00,
2013-05-14 16:04:00,87.6,63.0,29.28,WSW,248,0.0,0.0,44,0.00,,---,0.00,VWS V14.00,2013-05-14 21:04:00,
2013-05-14 16:09:00,87.6,63.0,29.28,WSW,248,0.0,0.0,44,0.00,,---,0.00,VWS V14.00,2013-05-14 21:09:00,
2013-05-14 16:14:00,87.6,63.0,29.28,SW,225,0.0,0.0,44,0.00,,---,0.00,VWS V14.00,2013-05-14 21:14:00,
2013-05-14 16:19:00,87.6,63.0,29.28,WSW,248,0.0,0.0,44,0.00,,---,0.00,VWS V14.00,2013-05-14 21:19:00,
2013-05-14 16:24:00,87.6,63.0,29.28,SW,225,0.0,0.0,44,0.00,,---,0.00,VWS V14.00,2013-05-14 21:24:00,
2013-05-14 16:29:00,87.6,63.0,29.28,SW,225,0.0,0.0,44,0.00,,---,0.00,VWS V14.00,2013-05-14 21:29:00,
2013-05-14 16:34:00,87.8,63.2,29.28,SW,225,0.0,0.0,44,0.00,,---,0.00,VWS V14.00,2013-05-14 21:34:00,
2013-05-14 16:39:00,87.6,63.0,29.28,SW,225,0.0,0.0,44,0.00,,---,0.00,VWS V14.00,2013-05-14 21:39:00,
2013-05-14 16:44:00,87.8,63.2,29.28,SW,225,0.0,0.0,44,0.00,,---,0.00,VWS V14.00,2013-05-14 21:44:00,
2013-05-14 16:49:00,87.8,63.2,29.28,WSW,248,0.0,0.0,44,0.00,,---,0.00,VWS V14.00,2013-05-14 21:49:00,
2013-05-14 16:54:00,87.8,63.2,29.27,SW,225,0.0,0.0,44,0.00,,---,0.00,VWS V14.00,2013-05-14 21:54:00,
2013-05-14 16:59:00,87.9,63.3,29.27,SW,225,0.0,0.0,44,0.00,,---,0.00,VWS V14.00,2013-05-14 21:59:00,
2013-05-14 17:04:00,87.8,63.2,29.27,WSW,248,0.0,0.0,44,0.00,,---,0.00,VWS V14.00,2013-05-14 22:04:00,
2013-05-14 17:09:00,87.8,63.2,29.27,SW,225,0.0,0.0,44,0.00,,---,0.00,VWS V14.00,2013-05-14 22:09:00,
2013-05-14 17:14:00,87.6,62.4,29.27,WSW,248,0.0,0.0,43,0.00,,---,0.00,VWS V14.00,2013-05-14 22:14:00,
2013-05-14 17:19:00,87.6,62.4,29.27,SW,225,0.0,0.0,43,0.00,,---,0.00,VWS V14.00,2013-05-14 22:19:00,
2013-05-14 17:24:00,87.6,62.4,29.27,SW,225,0.0,0.0,43,0.00,,---,0.00,VWS V14.00,2013-05-14 22:24:00,
2013-05-14 17:29:00,87.6,62.4,29.27,SW,225,0.0,0.0,43,0.00,,---,0.00,VWS V14.00,2013-05-14 22:29:00,
2013-05-14 17:34:00,87.6,62.4,29.27,SSW,202,0.0,0.0,43,0.00,,---,0.00,VWS V14.00,2013-05-14 22:34:00,
2013-05-14 17:39:00,87.6,62.4,29.26,SW,225,0.0,0.0,43,0.00,,---,0.00,VWS V14.00,2013-05-14 22:39:00,
2013-05-14 17:44:00,87.4,62.2,29.26,WSW,248,0.0,0.0,43,0.00,,---,0.00,VWS V14.00,2013-05-14 22:44:00,
2013-05-14 17:49:00,87.4,62.2,29.25,SW,225,0.0,0.0,43,0.00,,---,0.00,VWS V14.00,2013-05-14 22:49:00,
2013-05-14 17:54:00,87.2,62.0,29.25,SW,225,0.0,0.0,43,0.00,,---,0.00,VWS V14.00,2013-05-14 22:54:00,
2013-05-14 17:59:00,87.0,61.8,29.25,SW,225,0.0,0.0,43,0.00,,---,0.00,VWS V14.00,2013-05-14 22:59:00,
2013-05-14 18:04:00,87.0,61.8,29.25,SW,225,0.0,0.0,43,0.00,,---,0.00,VWS V14.00,2013-05-14 23:04:00,
2013-05-14 18:09:00,86.9,61.7,29.25,SW,225,0.0,0.0,43,0.00,,---,0.00,VWS V14.00,2013-05-14 23:09:00,
2013-05-14 18:14:00,86.7,61.5,29.25,SW,225,0.0,0.0,43,0.00,,---,0.00,VWS V14.00,2013-05-14 23:14:00,
2013-05-14 18:19:00,86.5,61.4,29.25,WSW,248,0.0,0.0,43,0.00,,---,0.00,VWS V14.00,2013-05-14 23:19:00,
2013-05-14 18:24:00,86.5,61.4,29.25,SW,225,0.0,0.0,43,0.00,,---,0.00,VWS V14.00,2013-05-14 23:24:00,
2013-05-14 18:29:00,86.1,61.0,29.25,WSW,248,0.0,0.0,43,0.00,,---,0.00,VWS V14.00,2013-05-14 23:29:00,
2013-05-14 18:34:00,85.8,60.7,29.24,SW,225,0.0,0.0,43,0.00,,---,0.00,VWS V14.00,2013-05-14 23:34:00,
2013-05-14 18:39:00,85.8,60.1,29.24,WSW,248,0.0,0.0,42,0.00,,---,0.00,VWS V14.00,2013-05-14 23:39:00,
2013-05-14 18:44:00,85.8,60.7,29.24,WSW,248,0.0,0.0,43,0.00,,---,0.00,VWS V14.00,2013-05-14 23:44:00,
2013-05-14 18:49:00,85.6,60.6,29.24,SW,225,0.0,0.0,43,0.00,,---,0.00,VWS V14.00,2013-05-14 23:49:00,
2013-05-14 18:54:00,85.4,59.7,29.24,SW,225,0.0,0.0,42,0.00,,---,0.00,VWS V14.00,2013-05-14 23:54:00,
2013-05-14 18:59:00,85.2,59.5,29.24,SW,225,0.0,0.0,42,0.00,,---,0.00,VWS V14.00,2013-05-14 23:59:00,
2013-05-14 19:04:00,85.2,60.2,29.24,SW,225,0.0,0.0,43,0.00,,---,0.00,VWS V14.00,2013-05-15 00:04:00,
2013-05-14 19:09:00,85.1,60.1,29.24,SW,225,0.0,0.0,43,0.00,,---,0.00,VWS V14.00,2013-05-15 00:09:00,
2013-05-14 19:14:00,84.9,59.9,29.24,SW,225,0.0,0.0,43,0.00,,---,0.00,VWS V14.00,2013-05-15 00:14:00,
2013-05-14 19:19:00,84.7,59.8,29.24,WSW,248,0.0,0.0,43,0.00,,---,0.00,VWS V14.00,2013-05-15 00:19:00,
2013-05-14 19:24:00,84.3,59.4,29.24,SW,225,0.0,0.0,43,0.00,,---,0.00,VWS V14.00,2013-05-15 00:24:00,
2013-05-14 19:29:00,84.0,59.1,29.24,SW,225,0.0,0.0,43,0.00,,---,0.00,VWS V14.00,2013-05-15 00:29:00,
2013-05-14 19:34:00,83.8,59.6,29.24,WSW,248,0.0,0.0,44,0.00,,---,0.00,VWS V14.00,2013-05-15 00:34:00,
2013-05-14 19:39:00,83.6,59.4,29.24,SW,225,0.0,0.0,44,0.00,,---,0.00,VWS V14.00,2013-05-15 00:39:00,
2013-05-14 19:44:00,83.3,59.8,29.24,SW,225,0.0,0.0,45,0.00,,---,0.00,VWS V14.00,2013-05-15 00:44:00,
2013-05-14 19:49:00,82.9,59.4,29.24,SW,225,0.0,0.0,45,0.00,,---,0.00,VWS V14.00,2013-05-15 00:49:00,
2013-05-14 19:54:00,82.5,59.7,29.24,SW,225,0.0,0.0,46,0.00,,---,0.00,VWS V14.00,2013-05-15 00:54:00,
2013-05-14 19:59:00,82.2,59.4,29.24,SW,225,0.0,0.0,46,0.00,,---,0.00,VWS V14.00,2013-05-15 00:59:00,
2013-05-14 20:04:00,82.0,59.2,29.24,SW,225,0.0,0.0,46,0.00,,---,0.00,VWS V14.00,2013-05-15 01:04:00,
2013-05-14 20:09:00,81.6,58.8,29.24,SW,225,0.0,0.0,46,0.00,,---,0.00,VWS V14.00,2013-05-15 01:09:00,
2013-05-14 20:14:00,81.3,59.2,29.24,SW,225,0.0,0.0,47,0.00,,---,0.00,VWS V14.00,2013-05-15 01:14:00,
2013-05-14 20:19:00,80.9,58.8,29.25,SW,225,0.0,0.0,47,0.00,,---,0.00,VWS V14.00,2013-05-15 01:19:00,
2013-05-14 20:24:00,80.6,59.1,29.25,SW,225,0.0,0.0,48,0.00,,---,0.00,VWS V14.00,2013-05-15 01:24:00,
2013-05-14 20:29:00,80.4,58.9,29.25,SW,225,0.0,0.0,48,0.00,,---,0.00,VWS V14.00,2013-05-15 01:29:00,
2013-05-14 20:34:00,80.0,59.1,29.25,SW,225,0.0,0.0,49,0.00,,---,0.00,VWS V14.00,2013-05-15 01:34:00,
2013-05-14 20:39:00,79.8,59.0,29.25,SW,225,0.0,0.0,49,0.00,,---,0.00,VWS V14.00,2013-05-15 01:39:00,
2013-05-14 20:44:00,79.5,58.7,29.25,SW,225,0.0,0.0,49,0.00,,---,0.00,VWS V14.00,2013-05-15 01:44:00,
2013-05-14 20:49:00,79.3,59.1,29.25,SW,225,0.0,0.0,50,0.00,,---,0.00,VWS V14.00,2013-05-15 01:49:00,
2013-05-14 20:54:00,78.9,58.7,29.25,SW,225,0.0,0.0,50,0.00,,---,0.00,VWS V14.00,2013-05-15 01:54:00,
2013-05-14 20:59:00,78.9,58.7,29.25,SW,225,0.0,0.0,50,0.00,,---,0.00,VWS V14.00,2013-05-15 01:59:00,
2013-05-14 21:04:00,78.6,58.4,29.25,SW,225,0.0,0.0,50,0.00,,---,0.00,VWS V14.00,2013-05-15 02:04:00,
2013-05-14 21:09:00,78.6,58.4,29.26,SW,225,0.0,0.0,50,0.00,,---,0.00,VWS V14.00,2013-05-15 02:09:00,
2013-05-14 21:14:00,78.4,58.2,29.26,SW,225,0.0,0.0,50,0.00,,---,0.00,VWS V14.00,2013-05-15 02:14:00,
2013-05-14 21:19:00,78.0,57.9,29.27,SW,225,0.0,0.0,50,0.00,,---,0.00,VWS V14.00,2013-05-15 02:19:00,
2013-05-14 21:24:00,77.7,57.6,29.27,SW,225,0.0,0.0,50,0.00,,---,0.00,VWS V14.00,2013-05-15 02:24:00,
2013-05-14 21:29:00,77.7,57.6,29.27,SW,225,0.0,0.0,50,0.00,,---,0.00,VWS V14.00,2013-05-15 02:29:00,
2013-05-14 21:34:00,77.5,57.4,29.27,SW,225,0.0,0.0,50,0.00,,---,0.00,VWS V14.00,2013-05-15 02:34:00,
2013-05-14 21:39:00,77.1,57.0,29.27,SW,225,0.0,0.0,50,0.00,,---,0.00,VWS V14.00,2013-05-15 02:39:00,
2013-05-14 21:44:00,77.0,57.0,29.28,SW,225,0.0,0.0,50,0.00,,---,0.00,VWS V14.00,2013-05-15 02:44:00,
2013-05-14 21:49:00,76.8,56.8,29.27,SW,225,0.0,0.0,50,0.00,,---,0.00,VWS V14.00,2013-05-15 02:49:00,
2013-05-14 21:54:00,76.6,56.6,29.27,SW,225,0.0,0.0,50,0.00,,---,0.00,VWS V14.00,2013-05-15 02:54:00,
2013-05-14 21:59:00,76.6,56.6,29.28,SW,225,0.0,0.0,50,0.00,,---,0.00,VWS V14.00,2013-05-15 02:59:00,
2013-05-14 22:04:00,76.2,56.2,29.28,SW,225,0.0,0.0,50,0.00,,---,0.00,VWS V14.00,2013-05-15 03:04:00,
2013-05-14 22:09:00,76.2,56.2,29.28,SW,225,0.0,0.0,50,0.00,,---,0.00,VWS V14.00,2013-05-15 03:09:00,
2013-05-14 22:14:00,76.1,56.1,29.28,SW,225,0.0,0.0,50,0.00,,---,0.00,VWS V14.00,2013-05-15 03:14:00,
2013-05-14 22:19:00,76.1,55.6,29.28,SW,225,0.0,0.0,49,0.00,,---,0.00,VWS V14.00,2013-05-15 03:19:00,
2013-05-14 22:24:00,75.9,55.4,29.28,SW,225,0.0,0.0,49,0.00,,---,0.00,VWS V14.00,2013-05-15 03:24:00,
2013-05-14 22:29:00,75.9,55.4,29.28,SW,225,0.0,0.0,49,0.00,,---,0.00,VWS V14.00,2013-05-15 03:29:00,
2013-05-14 22:34:00,75.9,55.4,29.28,SW,225,0.0,0.0,49,0.00,,---,0.00,VWS V14.00,2013-05-15 03:34:00,
2013-05-14 22:39:00,75.7,55.2,29.29,WSW,248,0.0,0.0,49,0.00,,---,0.00,VWS V14.00,2013-05-15 03:39:00,
2013-05-14 22:44:00,75.7,55.2,29.29,SW,225,0.0,0.0,49,0.00,,---,0.00,VWS V14.00,2013-05-15 03:44:00,
2013-05-14 22:49:00,75.7,55.2,29.29,WSW,248,0.0,0.0,49,0.00,,---,0.00,VWS V14.00,2013-05-15 03:49:00,
2013-05-14 22:54:00,75.9,55.4,29.29,WSW,248,0.0,0.0,49,0.00,,---,0.00,VWS V14.00,2013-05-15 03:54:00,
2013-05-14 22:59:00,75.9,55.4,29.29,WSW,248,0.0,0.0,49,0.00,,---,0.00,VWS V14.00,2013-05-15 03:59:00,
2013-05-14 23:01:00,75.9,54.8,29.29,SW,225,0.0,0.0,48,0.00,,---,0.00,VWS V14.00,2013-05-15 04:01:00,
2013-05-14 23:02:00,76.1,55.0,29.29,WSW,248,0.0,0.0,48,0.00,,---,0.00,VWS V14.00,2013-05-15 04:02:00,
2013-05-14 23:03:00,76.1,55.0,29.29,SW,225,0.0,0.0,48,0.00,,---,0.00,VWS V14.00,2013-05-15 04:03:00,
2013-05-14 23:05:00,76.2,55.1,29.29,WSW,248,0.0,0.0,48,0.00,,---,0.00,VWS V14.00,2013-05-15 04:05:00,
2013-05-14 23:10:00,76.2,55.1,29.28,WSW,248,0.0,0.0,48,0.00,,---,0.00,VWS V14.00,2013-05-15 04:10:00,
2013-05-14 23:15:00,76.4,55.3,29.28,SW,225,0.0,0.0,48,0.00,,---,0.00,VWS V14.00,2013-05-15 04:15:00,
2013-05-14 23:20:00,76.6,54.9,29.29,WSW,248,0.0,0.0,47,0.00,,---,0.00,VWS V14.00,2013-05-15 04:20:00,
2013-05-14 23:25:00,76.6,54.9,29.28,WSW,248,0.0,0.0,47,0.00,,---,0.00,VWS V14.00,2013-05-15 04:25:00,
2013-05-14 23:30:00,76.8,55.1,29.29,WSW,248,0.0,0.0,47,0.00,,---,0.00,VWS V14.00,2013-05-15 04:30:00,
2013-05-14 23:35:00,76.8,54.5,29.29,WSW,248,0.0,0.0,46,0.00,,---,0.00,VWS V14.00,2013-05-15 04:35:00,
2013-05-14 23:40:00,76.8,54.5,29.29,SW,225,0.0,0.0,46,0.00,,---,0.00,VWS V14.00,2013-05-15 04:40:00,
2013-05-14 23:45:00,76.8,54.5,29.29,SW,225,0.0,0.0,46,0.00,,---,0.00,VWS V14.00,2013-05-15 04:45:00,
2013-05-14 23:50:00,76.8,54.5,29.29,SW,225,0.0,0.0,46,0.00,,---,0.00,VWS V14.00,2013-05-15 04:50:00,
2013-05-14 23:55:00,76.8,54.5,29.29,WSW,248,0.0,0.0,46,0.00,,---,0.00,VWS V14.00,2013-05-15 04:55:00,